Weather History for Kahului, HI

Change the Weather History Date:

Wednesday, January 1, 2014

  Actual Average Record
Temperature  
Mean Temperature 73 °F 72 °F  
Max Temperature 82 °F 81 °F 86 °F (1951)
Min Temperature 63 °F 64 °F 54 °F (1963)
Degree Days  
Heating Degree Days 0 0  
Month to date heating degree days 0 0  
Since 1 July heating degree days 0 0  
Cooling Degree Days 8 7  
Month to date cooling degree days 8 7  
Year to date cooling degree days 8 7  
Growing Degree Days 22 (Base 50)    
Moisture  
Dew Point 66 °F    
Average Humidity 80    
Maximum Humidity 93    
Minimum Humidity 67    
Precipitation  
Precipitation 0.00 in 0.10 in 4.22 in (1988)
Month to date precipitation 0.00 0.10  
Year to date precipitation 0.00 0.10  
Snow  
Snow 0.00 in - - ()
Month to date snowfall 0.0  
Since 1 July snowfall 0.0  
Snow Depth 0.00 in    
Sea Level Pressure  
Sea Level Pressure 29.95 in    
Wind  
Wind Speed 4 mph (East)    
Max Wind Speed 10 mph    
Max Gust Speed 14 mph    
Visibility 9 miles    
Events      
T = Trace of Precipitation, MM = Missing Value Source: NWS Daily Summary

Daily Weather History Graph

Daily Weather History Graph

Search for Another Location

Airport:

Trip Planner

Search our weather history database for the weather conditions in past years. The results will help you decide how hot, cold, wet, or windy it might be!

Date:

Astronomy

Jan. 01, 2014 Rise Set
Actual Time 7:02 AM HST 5:56 PM HST
Civil Twilight 6:38 AM HST 6:20 PM HST
Nautical Twilight 6:11 AM HST 6:47 PM HST
Astronomical Twilight 5:43 AM HST 7:15 PM HST
Moon 7:11 AM HST (1/1) 6:43 PM HST (1/1)
Length of Visible Light 11h 41m
Length of Day
10h 53m
New Moon, 0% of the Moon is Illuminated
Jan 1
New Moon
Jan 7
First Quarter
Jan 15
Full
Jan 23
Last Quarter
Jan 30
New

Hourly Weather History & Observations

Time (HST) Temp. Heat Index Dew Point Humidity Pressure Visibility Wind Dir Wind Speed Gust Speed Precip Events Conditions
12:54 AM 68.0 °F - 64.0 °F 87% 29.99 in 10.0 mi ESE 8.1 mph - N/A   Clear
1:54 AM 64.9 °F - 62.1 °F 90% 29.97 in 3.0 mi Calm Calm - N/A   Clear
2:54 AM 66.0 °F - 61.0 °F 84% 29.96 in 8.0 mi Calm Calm - N/A   Scattered Clouds
3:54 AM 64.0 °F - 61.0 °F 90% 29.94 in 10.0 mi Calm Calm - N/A   Clear
4:54 AM 64.0 °F - 61.0 °F 90% 29.95 in 10.0 mi SE 5.8 mph - N/A   Clear
5:54 AM 64.0 °F - 61.0 °F 90% 29.95 in 10.0 mi Calm Calm - N/A   Clear
6:54 AM 64.4 °F - 62.6 °F 94% 29.96 in 10.0 mi ESE 4.6 mph - N/A   Clear
7:54 AM 64.4 °F - 62.6 °F 94% 29.98 in 10.0 mi SE 5.8 mph - N/A   Clear
8:54 AM 71.6 °F - 68.0 °F 88% 29.99 in 10.0 mi NE 4.6 mph - N/A   Clear
9:54 AM 77.0 °F - 66.9 °F 71% 30.00 in 10.0 mi WNW 3.5 mph - N/A   Clear
10:54 AM 80.1 °F 82.7 °F 68.0 °F 67% 29.99 in 10.0 mi North 6.9 mph - N/A   Scattered Clouds
11:54 AM 81.0 °F 84.1 °F 69.1 °F 67% 29.96 in 10.0 mi NNE 6.9 mph - N/A   Scattered Clouds
12:54 PM 81.0 °F 84.1 °F 69.1 °F 67% 29.93 in 10.0 mi NE 8.1 mph - N/A   Scattered Clouds
1:54 PM 80.1 °F 83.2 °F 70.0 °F 71% 29.91 in 10.0 mi Variable 6.9 mph - N/A   Scattered Clouds
2:54 PM 80.1 °F 83.2 °F 70.0 °F 71% 29.88 in 10.0 mi NNE 5.8 mph - N/A   Scattered Clouds
3:54 PM 80.1 °F 83.2 °F 70.0 °F 71% 29.89 in 10.0 mi NE 6.9 mph - N/A   Partly Cloudy
4:54 PM 78.1 °F - 70.0 °F 76% 29.89 in 10.0 mi Calm Calm - N/A   Partly Cloudy
5:54 PM 75.9 °F - 70.0 °F 82% 29.91 in 10.0 mi East 3.5 mph - N/A   Partly Cloudy
6:54 PM 75.0 °F - 69.1 °F 82% 29.93 in 10.0 mi Calm Calm - N/A   Scattered Clouds
7:54 PM 73.0 °F - 68.0 °F 84% 29.95 in 10.0 mi Calm Calm - N/A   Mostly Cloudy
8:54 PM 71.1 °F - 68.0 °F 90% 29.96 in 10.0 mi Calm Calm - N/A   Scattered Clouds
9:54 PM 69.8 °F - 66.2 °F 88% 29.95 in 10.0 mi South 3.5 mph - N/A   Clear
10:54 PM 66.9 °F - 63.0 °F 87% 29.95 in 10.0 mi South 8.1 mph - N/A   Clear
11:54 PM 68.0 °F - 62.1 °F 81% 29.94 in 10.0 mi South 3.5 mph - N/A   Clear